sat.trackr.live / text

‹ back to catalog

UNKNOWN

NORAD 85424

UNKNOWN UNKNOWN UNKNOWN

§ Identity

Operator
Country
Launch date
Launch site
Launch vehicle
Mass (kg)
RCS (m²)

External: N2YO · Heavens-Above

§ Orbital elements

Epoch: 2026-05-12T09:20:38.511168Z

Period
94.03 min
Inclination
97.4738°
Eccentricity
0.0456111
Mean motion
15.31473718 rev/d
Perigee alt
159.0 km
Apogee alt
783.8 km
Semi-major
6,849.6 km
B*
1.3996e-3
RAAN
243.3937°
Arg perigee
209.2444°
Mean anomaly
148.2556°
Rev number
118

§ Raw data

UNKNOWN1 85424U          26132.38933462  .02751464  19596-5  13996-2 0  99992 85424  97.4738 243.3937 0456111 209.2444 148.2556 15.31473718  1188

JSON: /api/v1/satellites/85424 · /tle

For live sub-satellite position, see the globe view (requires WebGL).

§ Visibility from observer

Set your observer location to see the next 7 days of passes ≥ 10°. The values pass through the URL so the page stays shareable.

No JS? Fill the form by hand. The geolocation button needs JavaScript.